Flag for U.S.A. Weather past 2 weeks in Louisville, Kentucky, U.S.A.

Now
72 °F

Partly cloudy.


Feels Like: 72 °F
Forecast: 70 / 83 °F
Wind: 5 mph from Southwest

Location: Standiford Field

Current Time: Aug 30, 2015 at 8:34:41 AM

Latest Report: Aug 30, 2015 at 7:56 AM


Visibility: 10 mi

Pressure: 30.08 "Hg

Humidity: 81%

Dew point: 66 °F

Location of LouisvilleLocation

Historic Weather in Louisville — Graph

°F

Louisville temperature yesterday

Maximum temperature yesterday: 88 °F (at 4:56 PM)
Minimum temperature yesterday: 68 °F (at 5:56 AM)
Average temperature yesterday: 78 °F

Past Weeks' High & Low Weather Summary

 TemperatureHumidityPressure
High91 °F (Aug 16, 4:56 PM)94% (Aug 20, 12:02 AM)30.17 "Hg (Aug 20, 12:02 AM)
Low59 °F (Aug 25, 6:56 AM)36% (Aug 24, 4:56 PM)29.76 "Hg (Aug 19, 3:56 PM)
Average75 °F65%30.03 "Hg
* Reported Aug 15 6:56 AM — Aug 30 6:56 AM, Louisville, Weather by CustomWeather, © 2015

Note: Actual official high and low records may vary slightly from our data, if they occured in-between our weather recording intervals... More about our weather records

Advertising

Louisville weather history for previous 24 hours

 ConditionsComfort  
Time TempWeatherWind HumidityBarometerVisibility
6:56 AM
Sun, Aug 30
72 °FOvercast.6 mph81%30.06 "Hg10 mi
5:56 AM72 °FHigh level clouds.6 mph81%30.06 "Hg10 mi
4:56 AM73 °FHigh level clouds.6 mph79%30.04 "Hg10 mi
3:56 AM74 °FPassing clouds.9 mph76%30.04 "Hg10 mi
2:56 AM74 °FPassing clouds.9 mph79%30.04 "Hg10 mi
1:56 AM76 °FPassing clouds.7 mph74%30.05 "Hg10 mi
12:56 AM76 °FPassing clouds.7 mph77%30.05 "Hg10 mi
11:56 PM
Sat, Aug 29
75 °FPassing clouds.3 mph76%30.06 "Hg10 mi
10:56 PM77 °FPassing clouds.6 mph71%30.05 "Hg10 mi
9:56 PM77 °FPassing clouds.8 mph69%30.05 "Hg10 mi
8:56 PM80 °FPartly sunny.10 mph62%30.03 "Hg10 mi
7:56 PM83 °FBroken clouds.12 mph59%30.01 "Hg9 mi
6:56 PM87 °FBroken clouds.8 mph48%30.01 "Hg9 mi
5:56 PM88 °FBroken clouds.8 mph46%30.01 "Hg9 mi
4:56 PM88 °FPartly sunny.10 mph46%30.01 "Hg9 mi
3:56 PM87 °FPartly sunny.6 mph51%30.03 "Hg9 mi
2:56 PM87 °FScattered clouds.9 mph53%30.05 "Hg9 mi
1:56 PM85 °FBroken clouds.8 mph57%30.08 "Hg9 mi
12:56 PM85 °FScattered clouds.7 mph57%30.10 "Hg8 mi
11:56 AM82 °FBroken clouds.9 mph63%30.11 "Hg8 mi
10:56 AM82 °FPassing clouds.12 mph63%30.11 "Hg9 mi
9:56 AM76 °FPassing clouds.7 mph72%30.11 "Hg8 mi
8:56 AM72 °FPartly sunny.5 mph78%30.12 "Hg7 mi
Weather by CustomWeather, © 2015

See weather overviewHow to use our weather pages